Theta_e
311 311 311 311 310 308 304 301 296 304 305 293 295 289 291 292 292 295 293 291 289 287 286 282 281 282 284 290 289 284 287 283 278 283 289 291 289 285 286 275 278 278 278 277
310 311 311 311 310 306 303 297 296 305 303 291 289 291 291 293 292 292 291 290 291 290 287 281 285 285 291 290 288 284 286 281 275 277 282 286 283 287 288 286 285 276 273 277
310 310 310 310 310 305 302 298 292 298 298 294 290 288 289 289 294 292 292 290 291 289 287 288 284 285 290 290 289 291 288 283 279 273 278 282 280 284 287 284 280 275 279 280
309 309 309 310 309 306 301 297 292 292 291 290 289 289 289 288 287 291 292 289 289 288 283 286 285 287 287 290 291 288 287 279 282 283 285 285 284 283 284 281 282 276 276 280
309 308 309 310 309 307 301 295 292 293 291 291 289 288 288 288 289 289 288 287 290 289 285 286 283 286 284 285 287 281 287 278 282 280 285 285 282 285 285 285 285 284 285 283
310 308 308 309 308 306 300 297 296 293 290 289 287 287 287 289 290 291 292 290 289 287 289 291 290 290 289 288 285 284 283 280 279 273 283 282 277 283 284 285 287 286 282 287
312 308 307 308 307 304 301 296 296 292 288 287 289 289 289 289 290 287 291 291 288 290 294 292 290 289 289 288 287 288 283 282 280 275 279 270 282 289 289 287 288 289 289 290
313 310 307 306 307 306 302 298 296 293 288 290 290 289 289 289 289 287 289 291 292 293 289 285 282 282 283 286 286 286 286 282 278 273 272 279 283 286 285 283 284 289 288 290
312 311 308 306 306 305 303 299 297 295 290 289 291 288 289 285 286 286 288 291 292 290 287 283 279 276 278 279 281 285 287 287 280 278 273 272 282 287 292 290 279 289 290 288
313 312 309 307 306 306 303 301 298 295 290 293 291 287 288 289 286 285 287 288 287 290 284 281 279 279 282 277 278 278 280 281 278 278 276 279 286 291 291 277 280 290 290 289
313 312 311 308 307 307 303 301 300 295 292 293 292 293 289 288 288 285 287 286 286 285 282 281 282 280 282 279 282 280 278 276 275 278 275 273 289 289 283 287 289 290 289 290
312 312 312 310 308 307 305 299 299 298 293 293 295 295 295 293 291 290 289 287 287 288 284 284 283 281 282 281 276 284 278 283 280 281 280 288 291 290 293 293 291 291 288 289
312 312 312 311 309 307 306 300 297 296 293 293 292 291 295 296 292 293 287 288 291 289 290 287 285 281 283 279 281 281 284 286 282 283 285 288 291 292 292 292 291 291 290 290
312 313 313 312 310 308 306 300 298 297 294 287 290 293 289 292 293 293 292 290 291 292 290 285 284 282 287 282 284 282 285 284 283 283 287 288 290 291 291 291 291 291 291 292
312 312 312 312 310 309 305 303 299 299 293 287 289 294 291 291 291 291 291 290 288 286 284 284 283 285 285 285 284 283 287 286 283 284 288 288 286 288 289 288 290 291 290 289
310 310 311 311 310 307 300 294 301 300 298 289 285 289 287 288 290 290 289 289 288 287 285 285 286 288 285 281 280 287 288 290 292 289 289 289 287 288 289 289 290 290 289 290
310 310 310 310 309 302 295 293 297 302 299 289 285 286 286 288 288 288 288 289 287 286 286 283 283 284 286 281 280 287 289 291 292 293 292 288 287 287 290 290 291 292 290 289
310 310 310 310 308 303 297 299 301 300 293 290 284 285 282 287 284 284 288 285 285 284 283 283 281 284 283 279 285 288 289 291 291 290 292 292 289 288 289 289 288 287 287 288
309 309 309 304 298 294 295 301 301 298 294 285 284 283 285 285 284 285 284 286 281 286 282 282 282 281 278 283 285 286 287 287 287 288 290 289 289 289 289 288 287 287 287 288
308 302 297 289 295 301 300 294 290 290 290 288 284 287 283 283 282 282 283 284 281 279 281 282 281 280 286 288 289 289 289 290 290 286 285 286 287 288 288 287 287 288 288 288
299 293 289 296 300 295 292 286 283 285 282 285 285 286 285 285 281 282 284 282 282 276 278 277 277 277 281 287 288 290 289 290 291 290 291 289 289 288 287 287 288 287 288 288
298 294 296 295 290 286 284 283 284 283 281 283 283 285 286 284 287 285 283 281 281 275 280 277 274 280 286 288 288 288 288 288 289 290 290 289 289 288 287 287 287 288 288 289
295 289 285 284 284 279 279 279 281 281 283 284 285 283 282 283 285 284 282 278 277 280 275 275 277 283 285 286 287 286 287 287 287 288 289 288 287 288 287 286 288 289 288 288
288 284 280 281 280 281 281 281 282 284 284 286 286 281 281 284 281 283 279 281 280 274 274 273 282 284 287 287 287 286 285 285 286 286 287 287 286 286 286 287 289 288 287 287
285 284 280 281 283 285 283 284 284 283 287 287 284 283 284 282 281 282 281 276 274 274 274 280 284 287 286 286 285 285 285 283 283 283 284 285 285 285 285 286 288 287 287 286
286 284 282 284 284 284 283 281 282 285 288 287 286 283 280 280 281 279 277 276 272 277 281 284 285 286 285 283 285 286 286 284 285 284 284 284 285 285 286 282 283 285 285 283
283 282 286 285 284 286 284 284 285 290 286 283 284 280 278 283 279 278 280 275 280 284 283 283 284 286 287 287 286 286 285 284 284 285 285 285 286 285 283 283 285 285 285 284
Wind_Speed
14 14 15 17 17 16 2 3 1 1 1 3 2 2 2 2 4 2 1 3 3 3 2 1 2 2 5 2 1 3 3 3 5 5 4 3 5 6 4 3 0 3 1 10
14 14 15 16 17 12 4 3 2 2 1 2 3 1 2 2 2 2 1 1 1 1 3 3 5 5 5 5 3 3 2 4 5 1 1 2 5 4 4 3 2 7 2 9
12 14 15 16 16 12 2 1 3 3 1 2 3 2 3 3 1 3 2 3 0 4 6 5 2 2 4 4 3 2 1 4 6 6 4 3 5 6 7 7 4 4 11 11
10 12 14 16 16 14 3 2 2 1 3 3 2 1 2 2 3 3 2 3 6 3 3 4 5 2 2 7 4 3 3 5 7 11 15 14 16 16 13 13 12 8 4 6
8 10 11 14 17 15 1 3 2 3 1 2 4 3 6 4 2 3 4 5 4 5 5 5 4 6 2 6 5 2 2 5 8 15 15 10 11 12 13 17 18 21 21 27
7 8 9 11 16 14 2 0 1 2 3 3 3 0 1 3 2 4 6 4 6 6 6 5 5 5 6 6 4 6 5 2 6 7 9 12 12 11 19 11 8 15 17 19
5 4 7 9 10 12 3 2 2 3 2 2 3 2 2 4 6 4 2 1 5 3 5 7 8 7 7 9 8 5 4 3 3 6 8 3 7 4 3 7 9 14 16 12
7 4 4 5 6 9 3 2 2 2 4 1 4 5 4 4 4 3 5 6 1 4 4 4 4 3 3 5 2 4 6 3 5 3 2 13 10 1 5 5 7 9 14 6
8 7 5 4 3 3 2 1 2 2 3 1 4 2 5 4 4 4 4 2 3 1 2 3 3 3 1 4 4 3 5 7 4 5 3 6 1 4 4 3 7 3 5 2
9 8 9 6 5 3 2 1 2 3 3 3 4 4 2 4 1 2 3 4 3 2 3 3 3 3 2 4 5 6 4 4 9 8 7 11 9 8 3 1 7 5 2 3
10 10 10 9 8 6 3 1 1 3 4 5 5 4 5 2 3 3 3 2 1 3 3 2 4 3 4 2 4 7 9 8 6 6 5 12 8 5 7 5 0 3 2 5
11 11 11 12 11 10 6 1 1 0 3 5 3 4 7 4 1 3 5 2 3 5 3 2 3 3 3 4 5 5 5 9 6 12 11 6 10 7 10 4 6 5 5 6
12 13 13 15 14 14 10 2 3 1 3 6 2 5 4 2 4 2 3 3 3 2 2 1 3 5 1 4 7 5 7 7 6 1 8 19 20 14 12 10 9 6 5 3
14 15 14 14 16 15 13 3 4 0 3 4 3 2 1 2 2 5 3 2 2 2 1 2 4 3 5 4 5 5 5 4 6 11 17 18 20 18 13 11 7 5 5 7
14 14 13 13 16 16 8 3 4 4 3 4 5 4 5 3 3 5 5 4 2 2 1 3 4 4 2 4 3 14 10 12 10 13 10 11 6 6 4 2 6 7 7 7
12 13 13 13 15 15 3 3 6 7 4 1 5 1 4 2 4 4 5 4 4 3 4 3 5 3 2 4 7 8 11 18 19 17 5 9 3 4 4 5 7 7 6 7
11 12 12 13 17 9 4 5 2 10 5 3 4 4 3 2 1 2 2 0 2 2 3 5 4 3 5 4 11 5 11 14 19 20 13 11 5 7 7 8 7 6 6 7
11 11 11 12 21 7 2 3 9 8 4 2 4 3 3 7 3 2 2 3 2 3 4 3 3 2 4 11 27 12 10 18 19 13 13 18 4 5 7 5 4 6 7 6
10 9 8 3 3 3 2 10 13 1 3 4 4 4 4 4 3 3 2 2 4 4 5 4 5 5 12 22 17 12 11 11 9 5 12 10 12 14 9 8 8 8 7 6
9 2 3 2 2 22 12 3 4 3 4 4 4 2 4 6 3 3 3 3 4 4 6 2 6 10 16 26 27 20 16 13 11 10 13 8 12 15 12 10 7 8 6 4
1 1 2 2 9 1 2 4 6 5 5 5 5 11 8 3 4 4 5 3 3 4 4 5 5 6 13 19 20 17 17 18 19 16 17 10 9 10 10 9 9 7 7 6
4 7 4 2 2 3 6 6 5 6 6 6 5 4 4 3 3 3 4 4 4 7 3 3 7 11 15 10 11 10 8 7 11 14 20 12 10 8 7 7 7 7 7 6
2 3 4 4 4 7 9 10 5 5 5 5 6 3 4 3 3 3 4 6 7 3 3 7 11 7 7 8 6 7 6 5 7 10 8 9 7 6 7 6 6 7 7 6
2 4 8 8 8 8 6 3 3 3 3 7 7 2 3 3 4 3 5 5 2 4 6 10 8 6 13 6 5 4 5 7 7 8 8 8 8 8 8 8 6 6 6 6
4 4 8 11 4 1 2 1 3 1 6 8 3 1 3 3 5 5 4 5 7 9 9 7 4 6 6 6 2 3 6 3 6 5 7 8 7 8 10 8 7 8 5 6
3 7 6 5 2 4 2 1 2 2 6 2 1 3 4 6 5 6 9 5 10 8 6 4 5 7 5 4 5 5 4 4 7 7 9 7 9 10 9 2 5 6 7 8
7 8 7 8 8 9 3 5 4 8 7 4 4 6 9 1 4 6 6 8 6 4 5 3 4 7 8 6 8 7 6 6 7 7 7 13 10 6 5 9 10 8 9 9
Wind_Direction
3 2 5 3 1 344 298 305 7 185 13 50 292 60 41 338 138 163 273 300 314 313 15 280 190 212 208 146 358 277 104 308 268 241 103 16 167 202 238 131 184 254 197 271
360 358 358 358 1 7 322 327 24 211 164 63 122 181 110 319 171 216 228 263 212 353 278 288 206 184 146 160 218 339 97 245 303 136 91 146 226 223 222 249 171 221 185 259
358 357 353 353 353 352 289 316 7 349 174 220 325 163 170 181 126 292 265 290 215 268 250 198 294 274 126 133 250 90 324 269 235 219 234 333 250 239 210 204 231 269 236 284
353 357 353 350 348 346 307 4 92 36 321 47 31 341 14 231 205 229 230 237 234 282 288 262 206 160 230 164 146 222 236 272 269 271 277 276 269 261 245 225 216 207 249 271
346 351 354 353 344 343 291 351 4 170 291 307 271 139 196 231 182 246 204 236 314 219 235 290 310 335 275 236 158 209 175 274 306 288 262 245 264 250 240 233 237 245 256 271
325 345 346 356 353 338 10 300 139 279 134 178 284 113 119 226 72 229 279 290 304 268 271 328 334 337 318 286 204 202 203 302 336 276 340 308 283 246 226 219 215 220 241 251
282 322 341 355 5 7 307 46 292 279 248 198 238 197 260 244 218 272 306 264 265 25 337 309 262 242 246 249 252 226 266 282 259 272 318 268 242 162 306 217 238 225 246 258
263 252 302 334 1 356 324 340 311 317 281 8 279 204 245 262 256 227 258 262 242 25 315 285 272 188 227 213 172 255 207 240 289 286 281 280 295 72 167 174 265 229 234 248
261 242 229 268 290 360 307 7 315 281 304 359 98 211 196 237 227 162 212 87 39 34 256 284 270 245 32 180 148 15 237 219 217 333 293 260 262 107 51 72 288 148 105 256
253 243 222 216 245 214 122 3 309 275 261 249 159 207 215 175 300 261 141 157 180 194 234 245 238 267 80 236 212 168 168 206 222 237 264 278 252 147 150 114 234 123 127 290
268 242 219 210 215 216 146 120 167 311 282 270 202 188 180 152 233 202 161 87 275 161 247 240 247 220 216 292 204 179 172 165 193 193 245 265 151 107 180 206 60 141 297 275
270 258 225 209 204 205 176 199 172 209 256 272 324 290 280 289 341 189 190 163 161 223 215 265 320 283 235 210 267 152 223 197 189 193 218 221 191 213 215 229 218 247 270 275
268 257 245 213 206 203 186 155 146 180 268 276 190 237 233 219 217 315 180 209 191 186 112 256 256 259 325 238 233 225 234 221 238 54 245 248 255 249 237 237 241 247 249 247
278 263 250 223 204 201 193 178 157 144 284 271 265 119 214 50 228 238 279 81 52 40 102 250 249 223 198 249 280 251 206 134 216 264 271 278 272 266 257 250 206 180 223 232
278 271 259 233 203 194 196 204 192 186 194 287 298 275 118 120 201 212 226 210 207 174 220 220 231 253 320 264 256 247 200 222 215 243 224 223 250 184 148 176 175 204 234 271
271 267 257 240 200 154 106 284 212 190 141 295 285 65 163 172 202 186 194 190 210 195 189 240 244 204 137 264 254 216 206 223 229 243 245 240 178 162 174 219 231 239 249 251
267 267 257 243 181 151 169 201 144 158 121 192 275 258 61 90 67 93 135 155 244 182 231 230 248 153 162 243 255 206 218 225 232 241 252 255 194 237 219 210 221 225 247 255
264 267 261 246 181 115 236 174 147 148 109 171 239 240 231 176 171 184 188 179 187 221 239 248 217 173 207 248 244 270 266 258 267 249 227 243 219 220 209 204 217 238 241 247
260 261 267 56 116 166 208 146 152 36 188 217 196 210 210 156 158 114 169 228 217 214 225 232 167 204 226 238 254 244 223 223 243 279 237 225 226 232 228 211 223 232 244 237
269 123 128 218 206 119 116 102 154 222 214 229 219 234 228 161 134 175 152 193 242 243 219 216 232 251 259 257 254 257 254 245 241 247 249 226 235 227 210 211 215 213 212 214
132 126 89 86 125 160 188 211 190 178 230 205 195 208 186 234 149 164 209 189 210 250 220 192 250 259 243 248 251 253 252 247 243 246 254 233 235 224 212 203 204 203 213 214
124 115 91 101 183 218 215 206 192 199 223 173 193 217 194 164 184 151 176 212 172 249 129 220 254 244 253 248 247 249 234 238 244 241 248 234 225 217 210 198 199 196 199 204
59 77 130 176 177 229 215 201 183 197 195 174 169 170 130 128 212 174 174 208 222 89 210 235 238 250 278 249 250 261 237 238 262 268 233 204 217 217 222 229 222 200 205 205
226 182 186 213 201 233 200 205 183 206 130 143 154 99 169 163 165 184 207 194 130 226 240 238 248 243 257 255 249 223 237 226 247 254 235 203 210 227 221 215 205 211 224 219
232 222 233 222 224 184 183 180 121 192 130 145 112 174 177 191 222 202 198 177 223 211 231 230 248 280 301 293 274 250 272 269 254 243 238 233 216 214 224 213 197 204 219 224
220 231 254 246 265 253 214 185 167 162 149 112 166 183 209 214 222 197 212 197 221 234 226 248 265 281 286 268 286 262 242 246 260 257 245 229 222 217 241 264 224 219 210 220
216 235 233 266 283 270 217 163 181 156 150 196 193 204 221 180 223 221 201 221 232 230 247 242 220 251 274 269 256 245 214 231 230 231 237 258 249 180 186 239 242 219 220 223